Погода в Новом Ахпердино

Россия / Чувашская Республика     55°05′19″N   47°41′36″E
темп.,
°C
ветер,
м/с
пор.,
м/с
влажн.,
%
обл.,
%
осадки,
мм/ч
давл.,
гПа
погр.,
м
9 марта, вт
вт900:00−10зсз489386 0.6 1004149
03:00−15з349443 0.6 100753
06:00−16з34950 0.0 100839
09:00−13з35940 0.0 1009200
12:00−9з248756 0.0 1009466
15:00−8зсз348977 0.1 1010536
18:00−12ссз3395100 0.3 101175
21:00−12сз499599 0.4 1012276
10 марта, ср
ср1000:00−16сз599787 0.1 1012174
03:00−17сз5109688 0.1 1013271
06:00−17сз61195100 0.1 1014364
09:00−19ссз61095100 0.1 1016374
12:00−19ссз71094100 0.1 1017436
15:00−18ссз71092100 0.1 1019526
18:00−19ссз51093100 0.1 1021510
21:00−23ссз489788 0.1 1023144
11 марта, чт
чт1100:00−24сз479712 0.0 1024112
03:00−23зсз499839 0.0 1025148
06:00−23зсз41098100 0.0 1025189
09:00−19зсз6119294 0.0 1024355
12:00−15сз6109298 0.2 1024613
15:00−13сз588999 0.3 1025559
18:00−15зсз459598 0.0 102588
21:00−14зсз499695 0.1 1027156
12 марта, пт
пт1200:00−15зсз489798 0.0 1028142
03:00−17зсз479782 0.1 102990
06:00−19з47960 0.0 103195
09:00−15зсз57900 0.0 1032245
12:00−10зсз478332 0.0 1032411
15:00−9з488154 0.0 1032527
18:00−13зюз349080 0.0 103244
21:00−16зюз348646 0.0 103349
13 марта, сб
сб1300:00−16зюз34810 0.0 103459
03:00−16юз34840 0.0 103444
06:00−17ююз34910 0.0 103436
09:00−13ююз47850 0.0 1034249
12:00−10ююз59830 0.0 1033412
15:00−7ююз510800 0.0 1031737
18:00−11ю49843 0.0 1030163
21:00−12ююз5128643 0.0 1029327